sat.trackr.live / text

‹ back to catalog

STARLINK-35934

NORAD 67542 · 2026-014L

PAYLOAD ACTIVE UNKNOWN

§ Identity

Operator
Country
US
Launch date
2026-01-22
Launch site
AFWTR
Launch vehicle
Mass (kg)
RCS (m²)

Purposes: comms

External: N2YO · Heavens-Above · Gunter

§ Orbital elements

Epoch: 2026-09-19T22:03:18.248544Z

Period
93.91 min
Inclination
97.2861°
Eccentricity
0.0001221
Mean motion
15.33438238 rev/d
Perigee alt
464.7 km
Apogee alt
466.4 km
Semi-major
6,843.7 km
B*
4.8587e-4
RAAN
148.3657°
Arg perigee
63.3054°
Mean anomaly
296.8313°
Rev number
3,854

§ Raw data

STARLINK-359341 67542U 26014L   26262.91896121  .00015640  00000+0  48587-3 0  99922 67542  97.2861 148.3657 0001221  63.3054 296.8313 15.33438238 38542

JSON: /api/v1/satellites/67542 · /tle

For live sub-satellite position, see the globe view (requires WebGL).

§ Visibility from observer

Set your observer location to see the next 7 days of passes ≥ 10°. The values pass through the URL so the page stays shareable.

No JS? Fill the form by hand. The geolocation button needs JavaScript.